Time,TemperatureF,DewpointF,PressureIn,WindDirection,WindDirectionDegrees,WindSpeedMPH,WindSpeedGustMPH,Humidity,HourlyPrecipIn,Conditions,Clouds,dailyrainin,SoftwareType,DateUTC
2013-08-24 00:01:00,66.4,56.7,30.18,WNW,300,0.0,0.0,71,0.00,,---,0.00,VWS V14.01,2013-08-24 04:01:00,
2013-08-24 00:02:00,66.4,56.7,30.18,WNW,300,0.0,0.0,71,0.00,,---,0.00,VWS V14.01,2013-08-24 04:02:00,
2013-08-24 00:03:00,66.2,56.5,30.18,WNW,300,0.0,0.0,71,0.00,,---,0.00,VWS V14.01,2013-08-24 04:03:00,
2013-08-24 00:06:00,66.0,56.7,30.18,WNW,300,0.0,0.0,72,0.00,,---,0.00,VWS V14.01,2013-08-24 04:06:00,
2013-08-24 00:07:00,66.0,56.7,30.18,WNW,300,0.0,0.0,72,0.00,,---,0.00,VWS V14.01,2013-08-24 04:07:00,
2013-08-24 00:13:00,65.7,56.0,30.21,WNW,300,0.0,0.0,71,0.00,,---,0.00,VWS V14.01,2013-08-24 04:13:00,
2013-08-24 00:18:00,65.3,55.7,30.21,WNW,300,0.0,0.0,71,0.00,,---,0.00,VWS V14.01,2013-08-24 04:18:00,
2013-08-24 00:23:00,64.9,55.3,30.21,WNW,300,0.0,0.0,71,0.00,,---,0.00,VWS V14.01,2013-08-24 04:23:00,
2013-08-24 00:29:00,64.8,55.5,30.21,NW,312,0.0,0.0,72,0.00,,---,0.00,VWS V14.01,2013-08-24 04:29:00,
2013-08-24 00:35:00,64.8,55.5,30.21,NW,304,3.1,3.1,72,0.00,,---,0.00,VWS V14.01,2013-08-24 04:35:00,
2013-08-24 00:40:00,64.8,55.5,30.21,NNW,342,3.1,3.1,72,0.00,,---,0.00,VWS V14.01,2013-08-24 04:40:00,
2013-08-24 00:46:00,64.9,55.7,30.21,WNW,291,4.6,5.7,72,0.00,,---,0.00,VWS V14.01,2013-08-24 04:46:00,
2013-08-24 00:51:00,64.9,56.1,30.21,NW,314,4.1,4.1,73,0.00,,---,0.00,VWS V14.01,2013-08-24 04:51:00,
2013-08-24 00:56:00,64.9,56.1,30.21,NW,317,6.2,6.7,73,0.00,,---,0.00,VWS V14.01,2013-08-24 04:56:00,
2013-08-24 01:01:00,64.9,56.1,30.21,NW,321,4.1,4.6,73,0.00,,---,0.00,VWS V14.01,2013-08-24 05:01:00,
2013-08-24 01:06:00,64.9,56.1,30.21,NW,315,3.6,4.6,73,0.00,,---,0.00,VWS V14.01,2013-08-24 05:06:00,
2013-08-24 01:12:00,64.9,55.7,30.21,NW,322,4.1,4.1,72,0.00,,---,0.00,VWS V14.01,2013-08-24 05:12:00,
2013-08-24 01:17:00,64.8,55.5,30.21,NW,319,3.1,3.6,72,0.00,,---,0.00,VWS V14.01,2013-08-24 05:17:00,
2013-08-24 01:22:00,64.8,55.5,30.21,NW,313,0.0,0.0,72,0.00,,---,0.00,VWS V14.01,2013-08-24 05:22:00,
2013-08-24 01:27:00,64.8,55.5,30.21,WNW,291,3.1,4.6,72,0.00,,---,0.00,VWS V14.01,2013-08-24 05:27:00,
2013-08-24 01:33:00,64.9,54.9,30.21,NW,310,4.1,4.1,70,0.00,,---,0.00,VWS V14.01,2013-08-24 05:33:00,
2013-08-24 01:39:00,64.9,54.9,30.21,NNW,346,2.6,4.1,70,0.00,,---,0.00,VWS V14.01,2013-08-24 05:39:00,
2013-08-24 01:45:00,64.9,54.9,30.21,WNW,302,3.1,4.1,70,0.00,,---,0.00,VWS V14.01,2013-08-24 05:45:00,
2013-08-24 01:51:00,65.1,54.3,30.21,NNW,333,3.1,5.7,68,0.00,,---,0.00,VWS V14.01,2013-08-24 05:51:00,
2013-08-24 01:56:00,65.1,54.3,30.21,NW,314,3.6,3.6,68,0.00,,---,0.00,VWS V14.01,2013-08-24 05:56:00,
2013-08-24 02:02:00,65.3,53.7,30.21,NW,318,4.1,4.6,66,0.00,,---,0.00,VWS V14.01,2013-08-24 06:02:00,
2013-08-24 02:07:00,65.7,53.6,30.21,NNW,339,4.1,4.1,65,0.00,,---,0.00,VWS V14.01,2013-08-24 06:07:00,
2013-08-24 02:12:00,65.8,53.3,30.21,North,9,7.2,7.2,64,0.00,,---,0.00,VWS V14.01,2013-08-24 06:12:00,
2013-08-24 02:17:00,66.0,53.5,30.21,North,7,3.6,3.6,64,0.00,,---,0.00,VWS V14.01,2013-08-24 06:17:00,
2013-08-24 02:23:00,66.2,53.7,30.21,North,353,4.1,7.2,64,0.00,,---,0.00,VWS V14.01,2013-08-24 06:23:00,
2013-08-24 02:28:00,66.6,54.4,30.21,NNW,337,4.1,5.7,65,0.00,,---,0.00,VWS V14.01,2013-08-24 06:28:00,
2013-08-24 02:33:00,66.9,54.8,30.21,North,357,3.1,6.2,65,0.00,,---,0.00,VWS V14.01,2013-08-24 06:33:00,
2013-08-24 02:38:00,67.1,55.0,30.21,NNW,332,3.6,4.6,65,0.00,,---,0.00,VWS V14.01,2013-08-24 06:38:00,
2013-08-24 02:44:00,67.5,55.7,30.21,North,349,6.7,6.7,66,0.00,,---,0.00,VWS V14.01,2013-08-24 06:44:00,
2013-08-24 02:49:00,67.5,56.1,30.21,NNW,327,7.2,7.2,67,0.00,,---,0.00,VWS V14.01,2013-08-24 06:49:00,
2013-08-24 02:55:00,67.6,56.3,30.21,North,357,3.1,3.1,67,0.00,,---,0.00,VWS V14.01,2013-08-24 06:55:00,
2013-08-24 03:00:00,67.5,56.1,30.21,North,350,6.7,6.7,67,0.00,,---,0.00,VWS V14.01,2013-08-24 07:00:00,
2013-08-24 03:06:00,67.3,56.0,30.21,NNW,348,7.2,7.2,67,0.00,,---,0.00,VWS V14.01,2013-08-24 07:06:00,
2013-08-24 03:11:00,67.1,55.8,30.21,NNE,22,4.6,8.7,67,0.00,,---,0.00,VWS V14.01,2013-08-24 07:11:00,
2013-08-24 03:16:00,66.9,55.6,30.21,NE,54,3.6,7.2,67,0.00,,---,0.00,VWS V14.01,2013-08-24 07:16:00,
2013-08-24 03:22:00,66.7,55.0,30.21,NNW,336,3.6,7.2,66,0.00,,---,0.00,VWS V14.01,2013-08-24 07:22:00,
2013-08-24 03:28:00,66.6,53.6,30.24,North,353,3.6,7.2,63,0.00,,---,0.00,VWS V14.01,2013-08-24 07:28:00,
2013-08-24 03:34:00,66.7,52.0,30.24,North,5,6.2,6.2,59,0.00,,---,0.00,VWS V14.01,2013-08-24 07:34:00,
2013-08-24 03:40:00,66.6,51.8,30.24,NNE,20,3.1,3.1,59,0.00,,---,0.00,VWS V14.01,2013-08-24 07:40:00,
2013-08-24 03:46:00,66.7,52.9,30.21,North,1,4.6,5.7,61,0.00,,---,0.00,VWS V14.01,2013-08-24 07:46:00,
2013-08-24 03:52:00,66.6,52.7,30.21,North,9,4.6,6.7,61,0.00,,---,0.00,VWS V14.01,2013-08-24 07:52:00,
2013-08-24 03:58:00,66.4,53.0,30.24,NNE,18,4.6,7.2,62,0.00,,---,0.00,VWS V14.01,2013-08-24 07:58:00,
2013-08-24 04:04:00,66.4,53.0,30.24,North,353,3.6,3.6,62,0.00,,---,0.00,VWS V14.01,2013-08-24 08:04:00,
2013-08-24 04:09:00,66.6,52.7,30.24,North,353,6.2,6.2,61,0.00,,---,0.00,VWS V14.01,2013-08-24 08:09:00,
2013-08-24 04:15:00,66.4,52.5,30.24,NNE,15,3.6,4.6,61,0.00,,---,0.00,VWS V14.01,2013-08-24 08:15:00,
2013-08-24 04:21:00,66.4,52.5,30.24,NNW,331,3.6,3.6,61,0.00,,---,0.00,VWS V14.01,2013-08-24 08:21:00,
2013-08-24 04:27:00,66.4,52.5,30.24,North,10,6.2,6.2,61,0.00,,---,0.00,VWS V14.01,2013-08-24 08:27:00,
2013-08-24 04:32:00,66.4,53.0,30.24,North,1,3.1,3.1,62,0.00,,---,0.00,VWS V14.01,2013-08-24 08:32:00,
2013-08-24 04:37:00,66.2,53.2,30.24,North,349,3.6,4.6,63,0.00,,---,0.00,VWS V14.01,2013-08-24 08:37:00,
2013-08-24 04:42:00,66.2,52.8,30.24,North,353,5.1,5.1,62,0.00,,---,0.00,VWS V14.01,2013-08-24 08:42:00,
2013-08-24 04:48:00,66.2,52.8,30.24,North,357,3.6,4.1,62,0.00,,---,0.00,VWS V14.01,2013-08-24 08:48:00,
2013-08-24 04:53:00,66.2,52.4,30.24,North,11,2.6,6.7,61,0.00,,---,0.00,VWS V14.01,2013-08-24 08:53:00,
2013-08-24 04:58:00,66.2,52.8,30.24,NNE,12,3.6,3.6,62,0.00,,---,0.00,VWS V14.01,2013-08-24 08:58:00,
2013-08-24 05:03:00,66.2,52.8,30.24,North,2,0.0,0.0,62,0.00,,---,0.00,VWS V14.01,2013-08-24 09:03:00,
2013-08-24 05:09:00,66.2,53.2,30.24,NNW,344,4.1,7.2,63,0.00,,---,0.00,VWS V14.01,2013-08-24 09:09:00,
2013-08-24 05:15:00,66.0,53.1,30.27,North,357,3.6,7.2,63,0.00,,---,0.00,VWS V14.01,2013-08-24 09:15:00,
2013-08-24 05:21:00,66.2,52.8,30.27,NNE,15,4.6,7.2,62,0.00,,---,0.00,VWS V14.01,2013-08-24 09:21:00,
2013-08-24 05:27:00,66.0,53.1,30.27,North,353,6.2,6.2,63,0.00,,---,0.00,VWS V14.01,2013-08-24 09:27:00,
2013-08-24 05:33:00,66.0,53.1,30.27,NE,43,4.1,4.1,63,0.00,,---,0.00,VWS V14.01,2013-08-24 09:33:00,
2013-08-24 05:39:00,66.0,52.6,30.27,NNW,344,3.1,6.7,62,0.00,,---,0.00,VWS V14.01,2013-08-24 09:39:00,
2013-08-24 05:44:00,65.8,52.9,30.27,NNW,343,3.6,5.7,63,0.00,,---,0.00,VWS V14.01,2013-08-24 09:44:00,
2013-08-24 05:50:00,65.8,52.9,30.27,North,353,2.6,4.6,63,0.00,,---,0.00,VWS V14.01,2013-08-24 09:50:00,
2013-08-24 05:56:00,65.8,52.9,30.27,North,353,3.6,4.6,63,0.00,,---,0.00,VWS V14.01,2013-08-24 09:56:00,
2013-08-24 06:01:00,65.7,53.2,30.27,North,353,3.1,3.6,64,0.00,,---,0.00,VWS V14.01,2013-08-24 10:01:00,
2013-08-24 06:07:00,65.7,53.6,30.27,NNE,20,4.1,4.1,65,0.00,,---,0.00,VWS V14.01,2013-08-24 10:07:00,
2013-08-24 06:12:00,65.7,53.2,30.27,NE,38,4.6,6.2,64,0.00,,---,0.00,VWS V14.01,2013-08-24 10:12:00,
2013-08-24 06:18:00,65.7,53.6,30.27,NNW,334,5.7,7.2,65,0.00,,---,0.00,VWS V14.01,2013-08-24 10:18:00,
2013-08-24 06:24:00,65.7,54.0,30.27,NE,42,4.6,4.6,66,0.00,,---,0.00,VWS V14.01,2013-08-24 10:24:00,
2013-08-24 06:29:00,65.7,54.0,30.30,NE,34,7.2,7.2,66,0.00,,---,0.00,VWS V14.01,2013-08-24 10:29:00,
2013-08-24 06:35:00,65.7,54.0,30.30,North,357,5.7,6.7,66,0.00,,---,0.00,VWS V14.01,2013-08-24 10:35:00,
2013-08-24 06:40:00,65.7,54.0,30.30,NNE,22,3.1,5.7,66,0.00,,---,0.00,VWS V14.01,2013-08-24 10:40:00,
2013-08-24 06:46:00,65.7,54.0,30.30,North,357,3.6,6.2,66,0.00,,---,0.00,VWS V14.01,2013-08-24 10:46:00,
2013-08-24 06:52:00,65.7,54.4,30.30,North,357,6.2,6.2,67,0.00,,---,0.00,VWS V14.01,2013-08-24 10:52:00,
2013-08-24 06:57:00,65.5,54.2,30.30,NNE,27,3.6,6.7,67,0.00,,---,0.00,VWS V14.01,2013-08-24 10:57:00,
2013-08-24 07:03:00,65.5,53.8,30.30,NNW,343,4.1,6.2,66,0.00,,---,0.00,VWS V14.01,2013-08-24 11:03:00,
2013-08-24 07:08:00,65.5,53.8,30.30,North,357,4.6,6.7,66,0.00,,---,0.00,VWS V14.01,2013-08-24 11:08:00,
2013-08-24 07:14:00,65.5,53.8,30.30,NNW,327,4.6,5.1,66,0.00,,---,0.00,VWS V14.01,2013-08-24 11:14:00,
2013-08-24 07:20:00,65.5,53.8,30.30,NNE,30,2.6,4.6,66,0.00,,---,0.00,VWS V14.01,2013-08-24 11:20:00,
2013-08-24 07:25:00,65.5,53.8,30.30,NNE,18,4.1,4.6,66,0.00,,---,0.00,VWS V14.01,2013-08-24 11:25:00,
2013-08-24 07:31:00,65.8,54.2,30.30,WNW,287,4.1,4.1,66,0.00,,---,0.00,VWS V14.01,2013-08-24 11:31:00,
2013-08-24 07:36:00,66.2,54.5,30.30,NW,326,6.7,6.7,66,0.00,,---,0.00,VWS V14.01,2013-08-24 11:36:00,
2013-08-24 07:42:00,66.6,54.4,30.33,North,357,5.7,7.2,65,0.00,,---,0.00,VWS V14.01,2013-08-24 11:42:00,
2013-08-24 07:48:00,66.9,53.9,30.33,NNE,23,6.2,8.7,63,0.00,,---,0.00,VWS V14.01,2013-08-24 11:48:00,
2013-08-24 07:53:00,67.3,52.5,30.33,West,270,4.6,8.7,59,0.00,,---,0.00,VWS V14.01,2013-08-24 11:53:00,
2013-08-24 07:59:00,67.6,51.9,30.33,NNW,345,6.2,7.2,57,0.00,,---,0.00,VWS V14.01,2013-08-24 11:59:00,
2013-08-24 08:04:00,67.8,50.1,30.33,NNE,15,6.2,6.2,53,0.00,,---,0.00,VWS V14.01,2013-08-24 12:04:00,
2013-08-24 08:10:00,68.2,49.9,30.33,NNE,15,4.1,6.2,52,0.00,,---,0.00,VWS V14.01,2013-08-24 12:10:00,
2013-08-24 08:15:00,68.4,49.5,30.33,North,4,6.7,9.3,51,0.00,,---,0.00,VWS V14.01,2013-08-24 12:15:00,
2013-08-24 08:21:00,68.5,48.6,30.33,North,0,7.2,7.2,49,0.00,,---,0.00,VWS V14.01,2013-08-24 12:21:00,
2013-08-24 08:27:00,68.7,47.1,30.33,North,353,6.7,6.7,46,0.00,,---,0.00,VWS V14.01,2013-08-24 12:27:00,
2013-08-24 08:32:00,68.9,46.7,30.33,NW,308,9.3,9.3,45,0.00,,---,0.00,VWS V14.01,2013-08-24 12:32:00,
2013-08-24 08:38:00,68.9,46.1,30.33,NNW,341,4.1,7.2,44,0.00,,---,0.00,VWS V14.01,2013-08-24 12:38:00,
2013-08-24 08:44:00,69.1,45.0,30.33,North,9,6.2,6.7,42,0.00,,---,0.00,VWS V14.01,2013-08-24 12:44:00,
2013-08-24 08:49:00,69.3,45.2,30.33,North,3,7.2,7.2,42,0.00,,---,0.00,VWS V14.01,2013-08-24 12:49:00,
2013-08-24 08:55:00,69.4,44.7,30.33,NNW,330,7.2,7.2,41,0.00,,---,0.00,VWS V14.01,2013-08-24 12:55:00,
2013-08-24 09:00:00,69.6,45.5,30.33,North,357,4.1,6.2,42,0.00,,---,0.00,VWS V14.01,2013-08-24 13:00:00,
2013-08-24 09:06:00,69.8,45.1,30.33,North,357,3.1,7.2,41,0.00,,---,0.00,VWS V14.01,2013-08-24 13:06:00,
2013-08-24 09:12:00,70.0,44.6,30.33,NW,324,3.1,6.2,40,0.00,,---,0.00,VWS V14.01,2013-08-24 13:12:00,
2013-08-24 09:17:00,70.2,44.1,30.33,North,9,5.7,7.2,39,0.00,,---,0.00,VWS V14.01,2013-08-24 13:17:00,
2013-08-24 09:23:00,70.5,43.7,30.33,NNE,30,6.2,6.7,38,0.00,,---,0.00,VWS V14.01,2013-08-24 13:23:00,
2013-08-24 09:28:00,70.7,43.9,30.36,NNE,18,3.1,4.6,38,0.00,,---,0.00,VWS V14.01,2013-08-24 13:28:00,
2013-08-24 09:34:00,70.7,43.2,30.36,North,0,3.1,7.2,37,0.00,,---,0.00,VWS V14.01,2013-08-24 13:34:00,
2013-08-24 09:40:00,70.9,42.6,30.36,North,353,3.6,6.7,36,0.00,,---,0.00,VWS V14.01,2013-08-24 13:40:00,
2013-08-24 09:45:00,70.9,42.6,30.36,NNE,18,9.3,9.3,36,0.00,,---,0.00,VWS V14.01,2013-08-24 13:45:00,
2013-08-24 09:50:00,71.2,42.2,30.36,NE,38,5.7,9.5,35,0.00,,---,0.00,VWS V14.01,2013-08-24 13:50:00,
2013-08-24 09:55:00,71.2,42.2,30.36,NNW,344,4.1,11.6,35,0.00,,---,0.00,VWS V14.01,2013-08-24 13:55:00,
2013-08-24 10:01:00,71.2,41.5,30.36,North,357,3.6,6.7,34,0.00,,---,0.00,VWS V14.01,2013-08-24 14:01:00,
2013-08-24 10:06:00,71.2,38.2,30.36,NNE,19,6.2,7.2,30,0.00,,---,0.00,VWS V14.01,2013-08-24 14:06:00,
2013-08-24 10:12:00,71.6,37.7,30.36,NNE,28,6.2,6.7,29,0.00,,---,0.00,VWS V14.01,2013-08-24 14:12:00,
2013-08-24 10:17:00,71.8,37.8,30.36,NW,306,4.1,8.7,29,0.00,,---,0.00,VWS V14.01,2013-08-24 14:17:00,
2013-08-24 10:23:00,71.8,37.0,30.36,North,353,6.7,8.7,28,0.00,,---,0.00,VWS V14.01,2013-08-24 14:23:00,
2013-08-24 10:28:00,71.8,36.0,30.36,North,357,6.2,6.7,27,0.00,,---,0.00,VWS V14.01,2013-08-24 14:28:00,
2013-08-24 10:34:00,72.1,37.3,30.36,NNE,12,3.6,5.7,28,0.00,,---,0.00,VWS V14.01,2013-08-24 14:34:00,
2013-08-24 10:40:00,72.0,35.2,30.36,North,6,9.3,11.6,26,0.00,,---,0.00,VWS V14.01,2013-08-24 14:40:00,
2013-08-24 10:45:00,72.1,36.3,30.36,North,0,3.1,8.7,27,0.00,,---,0.00,VWS V14.01,2013-08-24 14:45:00,
2013-08-24 10:51:00,72.5,36.7,30.36,NNE,16,7.2,8.7,27,0.00,,---,0.00,VWS V14.01,2013-08-24 14:51:00,
2013-08-24 10:57:00,72.5,35.7,30.39,NW,323,0.0,6.2,26,0.00,,---,0.00,VWS V14.01,2013-08-24 14:57:00,
2013-08-24 11:02:00,72.9,36.0,30.39,NW,319,2.6,6.7,26,0.00,,---,0.00,VWS V14.01,2013-08-24 15:02:00,
2013-08-24 11:08:00,73.4,35.5,30.39,WNW,289,4.1,7.2,25,0.00,,---,0.00,VWS V14.01,2013-08-24 15:08:00,
2013-08-24 11:13:00,73.0,35.2,30.36,NNW,343,6.2,6.2,25,0.00,,---,0.00,VWS V14.01,2013-08-24 15:13:00,
2013-08-24 11:18:00,73.0,35.2,30.36,North,357,3.1,7.2,25,0.00,,---,0.00,VWS V14.01,2013-08-24 15:18:00,
2013-08-24 11:23:00,72.9,35.0,30.36,NNE,19,5.7,8.7,25,0.00,,---,0.00,VWS V14.01,2013-08-24 15:23:00,
2013-08-24 11:29:00,73.0,35.2,30.39,North,0,6.7,10.0,25,0.00,,---,0.00,VWS V14.01,2013-08-24 15:29:00,
2013-08-24 11:34:00,73.2,35.3,30.39,NNW,335,4.6,10.0,25,0.00,,---,0.00,VWS V14.01,2013-08-24 15:34:00,
2013-08-24 11:39:00,73.2,35.3,30.39,North,353,6.2,7.2,25,0.00,,---,0.00,VWS V14.01,2013-08-24 15:39:00,
2013-08-24 11:45:00,73.0,35.2,30.39,ENE,58,4.6,9.5,25,0.00,,---,0.00,VWS V14.01,2013-08-24 15:45:00,
2013-08-24 11:51:00,73.4,34.5,30.39,NNW,328,7.2,9.3,24,0.00,,---,0.00,VWS V14.01,2013-08-24 15:51:00,
2013-08-24 11:56:00,73.2,34.3,30.39,NNE,13,6.7,8.7,24,0.00,,---,0.00,VWS V14.01,2013-08-24 15:56:00,
2013-08-24 12:01:00,73.6,31.3,30.39,NNE,12,6.2,8.7,21,0.00,,---,0.00,VWS V14.01,2013-08-24 16:01:00,
2013-08-24 12:07:00,73.8,31.4,30.39,NNW,338,9.3,9.3,21,0.00,,---,0.00,VWS V14.01,2013-08-24 16:07:00,
2013-08-24 12:12:00,73.6,31.3,30.39,North,11,12.6,12.6,21,0.00,,---,0.00,VWS V14.01,2013-08-24 16:12:00,
2013-08-24 12:18:00,74.1,31.7,30.39,North,357,3.6,7.2,21,0.00,,---,0.00,VWS V14.01,2013-08-24 16:18:00,
2013-08-24 12:23:00,74.5,29.6,30.39,North,357,3.6,5.7,19,0.00,,---,0.00,VWS V14.01,2013-08-24 16:23:00,
2013-08-24 12:29:00,74.3,29.4,30.39,NNE,14,7.2,7.2,19,0.00,,---,0.00,VWS V14.01,2013-08-24 16:29:00,
2013-08-24 12:34:00,74.3,29.4,30.39,North,4,7.2,11.6,19,0.00,,---,0.00,VWS V14.01,2013-08-24 16:34:00,
2013-08-24 12:40:00,74.5,29.6,30.39,NNE,13,6.7,7.2,19,0.00,,---,0.00,VWS V14.01,2013-08-24 16:40:00,
2013-08-24 12:46:00,74.8,29.9,30.39,NNE,24,6.7,6.7,19,0.00,,---,0.00,VWS V14.01,2013-08-24 16:46:00,
2013-08-24 12:51:00,74.5,29.6,30.39,NNW,331,7.2,9.5,19,0.00,,---,0.00,VWS V14.01,2013-08-24 16:51:00,
2013-08-24 12:57:00,73.9,29.1,30.42,North,357,6.2,8.7,19,0.00,,---,0.00,VWS V14.01,2013-08-24 16:57:00,
2013-08-24 13:03:00,74.5,29.6,30.42,North,357,4.1,7.2,19,0.00,,---,0.00,VWS V14.01,2013-08-24 17:03:00,
2013-08-24 13:09:00,74.8,29.9,30.42,NNE,20,6.7,7.2,19,0.00,,---,0.00,VWS V14.01,2013-08-24 17:09:00,
2013-08-24 13:15:00,74.1,29.3,30.42,North,4,7.2,7.2,19,0.00,,---,0.00,VWS V14.01,2013-08-24 17:15:00,
2013-08-24 13:21:00,73.8,29.0,30.42,West,277,6.7,9.3,19,0.00,,---,0.00,VWS V14.01,2013-08-24 17:21:00,
2013-08-24 13:26:00,74.3,29.4,30.42,North,0,7.2,7.2,19,0.00,,---,0.00,VWS V14.01,2013-08-24 17:26:00,
2013-08-24 13:31:00,74.1,29.3,30.42,North,9,7.7,8.7,19,0.00,,---,0.00,VWS V14.01,2013-08-24 17:31:00,
2013-08-24 13:36:00,74.3,29.4,30.42,NNE,21,5.7,6.7,19,0.00,,---,0.00,VWS V14.01,2013-08-24 17:36:00,
2013-08-24 13:42:00,74.3,29.4,30.42,NNW,346,10.0,10.0,19,0.00,,---,0.00,VWS V14.01,2013-08-24 17:42:00,
2013-08-24 13:47:00,73.9,29.1,30.42,NE,47,6.2,9.5,19,0.00,,---,0.00,VWS V14.01,2013-08-24 17:47:00,
2013-08-24 13:53:00,73.8,29.0,30.42,North,8,7.2,9.5,19,0.00,,---,0.00,VWS V14.01,2013-08-24 17:53:00,
2013-08-24 13:58:00,73.9,29.1,30.39,NNW,342,6.7,9.5,19,0.00,,---,0.00,VWS V14.01,2013-08-24 17:58:00,
2013-08-24 14:04:00,73.9,29.1,30.39,ENE,64,4.6,9.5,19,0.00,,---,0.00,VWS V14.01,2013-08-24 18:04:00,
2013-08-24 14:09:00,73.6,28.8,30.39,NNW,336,9.3,9.3,19,0.00,,---,0.00,VWS V14.01,2013-08-24 18:09:00,
2013-08-24 14:15:00,74.1,29.3,30.42,North,5,4.6,8.7,19,0.00,,---,0.00,VWS V14.01,2013-08-24 18:15:00,
2013-08-24 14:21:00,74.1,29.3,30.42,North,10,6.2,6.7,19,0.00,,---,0.00,VWS V14.01,2013-08-24 18:21:00,
2013-08-24 14:27:00,73.9,29.1,30.42,NW,315,2.6,7.2,19,0.00,,---,0.00,VWS V14.01,2013-08-24 18:27:00,
2013-08-24 14:32:00,74.1,29.3,30.42,North,353,4.6,4.6,19,0.00,,---,0.00,VWS V14.01,2013-08-24 18:32:00,
2013-08-24 14:38:00,74.1,29.3,30.42,North,10,6.7,7.2,19,0.00,,---,0.00,VWS V14.01,2013-08-24 18:38:00,
2013-08-24 14:43:00,74.1,29.3,30.42,North,353,11.6,11.6,19,0.00,,---,0.00,VWS V14.01,2013-08-24 18:43:00,
2013-08-24 14:48:00,74.1,29.3,30.42,North,10,5.1,9.3,19,0.00,,---,0.00,VWS V14.01,2013-08-24 18:48:00,
2013-08-24 14:53:00,74.1,29.3,30.42,NNW,340,4.1,6.2,19,0.00,,---,0.00,VWS V14.01,2013-08-24 18:53:00,
2013-08-24 14:59:00,74.1,29.3,30.42,North,0,7.2,10.0,19,0.00,,---,0.00,VWS V14.01,2013-08-24 18:59:00,
2013-08-24 15:04:00,73.9,29.1,30.42,NNE,26,4.1,9.3,19,0.00,,---,0.00,VWS V14.01,2013-08-24 19:04:00,
2013-08-24 15:10:00,73.6,28.8,30.42,NNW,344,8.7,8.7,19,0.00,,---,0.00,VWS V14.01,2013-08-24 19:10:00,
2013-08-24 15:16:00,73.6,28.8,30.42,NNW,334,6.7,6.7,19,0.00,,---,0.00,VWS V14.01,2013-08-24 19:16:00,
2013-08-24 15:21:00,73.4,28.7,30.42,North,357,4.6,8.7,19,0.00,,---,0.00,VWS V14.01,2013-08-24 19:21:00,
2013-08-24 15:27:00,73.0,32.0,30.42,NNE,12,7.2,7.2,22,0.00,,---,0.00,VWS V14.01,2013-08-24 19:27:00,
2013-08-24 15:32:00,73.2,32.1,30.42,NNE,14,6.7,9.3,22,0.00,,---,0.00,VWS V14.01,2013-08-24 19:32:00,
2013-08-24 15:38:00,73.2,32.1,30.42,NNE,23,5.1,5.1,22,0.00,,---,0.00,VWS V14.01,2013-08-24 19:38:00,
2013-08-24 15:44:00,72.9,31.8,30.42,North,10,6.2,6.7,22,0.00,,---,0.00,VWS V14.01,2013-08-24 19:44:00,
2013-08-24 15:49:00,72.9,31.8,30.42,North,353,7.2,9.5,22,0.00,,---,0.00,VWS V14.01,2013-08-24 19:49:00,
2013-08-24 15:55:00,72.1,31.2,30.42,WNW,303,6.2,6.2,22,0.00,,---,0.00,VWS V14.01,2013-08-24 19:55:00,
2013-08-24 16:00:00,72.1,31.2,30.42,North,353,6.7,9.5,22,0.00,,---,0.00,VWS V14.01,2013-08-24 20:00:00,
2013-08-24 16:06:00,72.1,33.4,30.42,NNW,344,6.2,6.7,24,0.00,,---,0.00,VWS V14.01,2013-08-24 20:06:00,
2013-08-24 16:12:00,72.1,34.4,30.39,North,353,9.3,9.5,25,0.00,,---,0.00,VWS V14.01,2013-08-24 20:12:00,
2013-08-24 16:17:00,71.8,35.1,30.39,NW,325,4.6,6.7,26,0.00,,---,0.00,VWS V14.01,2013-08-24 20:17:00,
2013-08-24 16:22:00,71.6,35.9,30.39,NW,305,4.1,7.2,27,0.00,,---,0.00,VWS V14.01,2013-08-24 20:22:00,
2013-08-24 16:27:00,71.2,36.5,30.42,NNE,15,3.1,7.2,28,0.00,,---,0.00,VWS V14.01,2013-08-24 20:27:00,
2013-08-24 16:33:00,71.1,36.3,30.42,North,357,7.2,7.2,28,0.00,,---,0.00,VWS V14.01,2013-08-24 20:33:00,
2013-08-24 16:38:00,71.2,36.5,30.42,North,11,4.6,7.2,28,0.00,,---,0.00,VWS V14.01,2013-08-24 20:38:00,
2013-08-24 16:44:00,71.2,35.6,30.42,NNE,13,9.5,9.5,27,0.00,,---,0.00,VWS V14.01,2013-08-24 20:44:00,
2013-08-24 16:49:00,71.1,35.4,30.42,NNW,342,6.2,6.7,27,0.00,,---,0.00,VWS V14.01,2013-08-24 20:49:00,
2013-08-24 16:55:00,71.1,35.4,30.42,NNE,31,3.6,7.2,27,0.00,,---,0.00,VWS V14.01,2013-08-24 20:55:00,
2013-08-24 17:00:00,71.1,35.4,30.42,North,357,3.6,6.7,27,0.00,,---,0.00,VWS V14.01,2013-08-24 21:00:00,
2013-08-24 17:06:00,70.5,35.0,30.42,NW,318,6.7,6.7,27,0.00,,---,0.00,VWS V14.01,2013-08-24 21:06:00,
2013-08-24 17:12:00,70.2,35.6,30.42,West,279,4.6,5.7,28,0.00,,---,0.00,VWS V14.01,2013-08-24 21:12:00,
2013-08-24 17:17:00,70.0,36.3,30.42,West,275,4.1,5.7,29,0.00,,---,0.00,VWS V14.01,2013-08-24 21:17:00,
2013-08-24 17:23:00,69.8,36.1,30.42,NNW,341,3.1,4.1,29,0.00,,---,0.00,VWS V14.01,2013-08-24 21:23:00,
2013-08-24 17:29:00,69.6,36.0,30.42,NNW,333,7.2,7.2,29,0.00,,---,0.00,VWS V14.01,2013-08-24 21:29:00,
2013-08-24 17:34:00,69.6,36.0,30.42,NW,316,4.6,4.6,29,0.00,,---,0.00,VWS V14.01,2013-08-24 21:34:00,
2013-08-24 17:40:00,69.4,35.0,30.42,WNW,285,3.1,4.6,28,0.00,,---,0.00,VWS V14.01,2013-08-24 21:40:00,
2013-08-24 17:45:00,69.3,34.8,30.42,NW,314,4.1,5.7,28,0.00,,---,0.00,VWS V14.01,2013-08-24 21:45:00,
2013-08-24 17:51:00,69.3,34.8,30.42,North,357,4.1,7.2,28,0.00,,---,0.00,VWS V14.01,2013-08-24 21:51:00,
2013-08-24 17:57:00,69.1,33.7,30.42,NW,305,2.6,5.7,27,0.00,,---,0.00,VWS V14.01,2013-08-24 21:57:00,
2013-08-24 18:02:00,68.9,34.5,30.42,WNW,302,3.6,4.6,28,0.00,,---,0.00,VWS V14.01,2013-08-24 22:02:00,
2013-08-24 18:08:00,68.7,33.4,30.42,NNE,13,2.6,6.2,27,0.00,,---,0.00,VWS V14.01,2013-08-24 22:08:00,
2013-08-24 18:13:00,68.5,34.2,30.42,WNW,292,3.1,6.2,28,0.00,,---,0.00,VWS V14.01,2013-08-24 22:13:00,
2013-08-24 18:19:00,68.4,34.0,30.42,NNE,14,3.6,7.2,28,0.00,,---,0.00,VWS V14.01,2013-08-24 22:19:00,
2013-08-24 18:25:00,68.2,33.9,30.42,North,7,4.1,6.2,28,0.00,,---,0.00,VWS V14.01,2013-08-24 22:25:00,
2013-08-24 18:30:00,67.8,33.5,30.42,WNW,294,4.6,5.7,28,0.00,,---,0.00,VWS V14.01,2013-08-24 22:30:00,
2013-08-24 18:35:00,67.6,33.4,30.42,WNW,297,4.1,4.1,28,0.00,,---,0.00,VWS V14.01,2013-08-24 22:35:00,
2013-08-24 18:40:00,67.6,34.3,30.42,NE,44,3.6,5.7,29,0.00,,---,0.00,VWS V14.01,2013-08-24 22:40:00,
2013-08-24 18:46:00,67.3,34.0,30.42,North,1,0.0,6.2,29,0.00,,---,0.00,VWS V14.01,2013-08-24 22:46:00,
2013-08-24 18:51:00,67.3,34.8,30.42,North,1,2.6,3.1,30,0.00,,---,0.00,VWS V14.01,2013-08-24 22:51:00,
2013-08-24 18:57:00,66.9,34.5,30.42,NW,318,3.6,5.1,30,0.00,,---,0.00,VWS V14.01,2013-08-24 22:57:00,
2013-08-24 19:02:00,66.7,34.3,30.42,North,357,0.0,0.0,30,0.00,,---,0.00,VWS V14.01,2013-08-24 23:02:00,
2013-08-24 19:08:00,66.4,34.0,30.42,NNE,19,0.0,0.0,30,0.00,,---,0.00,VWS V14.01,2013-08-24 23:08:00,
2013-08-24 19:13:00,66.0,34.5,30.42,NNE,19,0.0,0.0,31,0.00,,---,0.00,VWS V14.01,2013-08-24 23:13:00,
2013-08-24 19:19:00,65.7,34.2,30.42,NNE,19,0.0,0.0,31,0.00,,---,0.00,VWS V14.01,2013-08-24 23:19:00,
2013-08-24 19:25:00,65.1,33.8,30.42,NNE,19,0.0,0.0,31,0.00,,---,0.00,VWS V14.01,2013-08-24 23:25:00,
2013-08-24 19:30:00,64.8,33.5,30.42,NNE,19,0.0,0.0,31,0.00,,---,0.00,VWS V14.01,2013-08-24 23:30:00,
2013-08-24 19:36:00,64.2,33.8,30.42,NNE,19,0.0,0.0,32,0.00,,---,0.00,VWS V14.01,2013-08-24 23:36:00,
2013-08-24 19:42:00,63.7,33.3,30.42,NNE,19,0.0,0.0,32,0.00,,---,0.00,VWS V14.01,2013-08-24 23:42:00,
2013-08-24 19:47:00,63.1,32.8,30.42,NNE,19,0.0,0.0,32,0.00,,---,0.00,VWS V14.01,2013-08-24 23:47:00,
2013-08-24 19:53:00,62.8,32.5,30.42,NNE,19,0.0,0.0,32,0.00,,---,0.00,VWS V14.01,2013-08-24 23:53:00,
2013-08-24 19:58:00,62.2,32.8,30.39,NNE,19,0.0,0.0,33,0.00,,---,0.00,VWS V14.01,2013-08-24 23:58:00,
2013-08-24 20:04:00,61.9,32.5,30.39,NNE,19,0.0,0.0,33,0.00,,---,0.00,VWS V14.01,2013-08-25 00:04:00,
2013-08-24 20:10:00,61.5,32.2,30.39,NNE,19,0.0,0.0,33,0.00,,---,0.00,VWS V14.01,2013-08-25 00:10:00,
2013-08-24 20:15:00,61.2,32.6,30.42,NNE,19,0.0,0.0,34,0.00,,---,0.00,VWS V14.01,2013-08-25 00:15:00,
2013-08-24 20:21:00,60.8,32.3,30.42,NNE,19,0.0,0.0,34,0.00,,---,0.00,VWS V14.01,2013-08-25 00:21:00,
2013-08-24 20:26:00,60.6,32.8,30.42,NNE,19,0.0,0.0,35,0.00,,---,0.00,VWS V14.01,2013-08-25 00:26:00,
2013-08-24 20:32:00,60.4,33.4,30.42,NNE,19,0.0,0.0,36,0.00,,---,0.00,VWS V14.01,2013-08-25 00:32:00,
2013-08-24 20:38:00,60.1,33.8,30.42,NNE,19,0.0,0.0,37,0.00,,---,0.00,VWS V14.01,2013-08-25 00:38:00,
2013-08-24 20:43:00,59.9,33.6,30.42,NNE,19,0.0,0.0,37,0.00,,---,0.00,VWS V14.01,2013-08-25 00:43:00,
2013-08-24 20:48:00,59.7,33.4,30.42,NNE,19,0.0,0.0,37,0.00,,---,0.00,VWS V14.01,2013-08-25 00:48:00,
2013-08-24 20:53:00,59.5,33.9,30.42,NNE,19,0.0,0.0,38,0.00,,---,0.00,VWS V14.01,2013-08-25 00:53:00,
2013-08-24 20:59:00,59.4,33.8,30.42,NNE,19,0.0,0.0,38,0.00,,---,0.00,VWS V14.01,2013-08-25 00:59:00,
2013-08-24 21:04:00,59.2,33.6,30.42,NNE,19,0.0,0.0,38,0.00,,---,0.00,VWS V14.01,2013-08-25 01:04:00,
2013-08-24 21:10:00,59.0,34.1,30.42,NNE,19,0.0,0.0,39,0.00,,---,0.00,VWS V14.01,2013-08-25 01:10:00,
2013-08-24 21:15:00,58.8,33.9,30.42,NNE,19,0.0,0.0,39,0.00,,---,0.00,VWS V14.01,2013-08-25 01:15:00,
2013-08-24 21:21:00,58.8,34.6,30.42,NNE,19,0.0,0.0,40,0.00,,---,0.00,VWS V14.01,2013-08-25 01:21:00,
2013-08-24 21:26:00,58.6,35.0,30.42,NNE,19,0.0,0.0,41,0.00,,---,0.00,VWS V14.01,2013-08-25 01:26:00,
2013-08-24 21:32:00,58.5,35.5,30.42,NNE,19,0.0,0.0,42,0.00,,---,0.00,VWS V14.01,2013-08-25 01:32:00,
2013-08-24 21:38:00,58.3,35.9,30.42,NNE,19,0.0,0.0,43,0.00,,---,0.00,VWS V14.01,2013-08-25 01:38:00,
2013-08-24 21:43:00,58.1,36.3,30.42,NNE,19,0.0,0.0,44,0.00,,---,0.00,VWS V14.01,2013-08-25 01:43:00,
2013-08-24 21:48:00,57.9,37.3,30.42,NNE,19,0.0,0.0,46,0.00,,---,0.00,VWS V14.01,2013-08-25 01:48:00,
2013-08-24 21:53:00,57.9,38.4,30.42,NNE,19,0.0,0.0,48,0.00,,---,0.00,VWS V14.01,2013-08-25 01:53:00,
2013-08-24 21:59:00,57.9,38.9,30.42,NNE,19,0.0,0.0,49,0.00,,---,0.00,VWS V14.01,2013-08-25 01:59:00,
2013-08-24 22:04:00,57.7,38.7,30.42,NNE,19,0.0,0.0,49,0.00,,---,0.00,VWS V14.01,2013-08-25 02:04:00,
2013-08-24 22:09:00,57.6,38.6,30.42,NNE,19,0.0,0.0,49,0.00,,---,0.00,VWS V14.01,2013-08-25 02:09:00,
2013-08-24 22:14:00,57.6,39.1,30.42,NNE,19,0.0,0.0,50,0.00,,---,0.00,VWS V14.01,2013-08-25 02:14:00,
2013-08-24 22:20:00,57.4,39.4,30.42,NNE,19,0.0,0.0,51,0.00,,---,0.00,VWS V14.01,2013-08-25 02:20:00,
2013-08-24 22:25:00,57.4,39.4,30.42,NNE,19,0.0,0.0,51,0.00,,---,0.00,VWS V14.01,2013-08-25 02:25:00,
2013-08-24 22:30:00,57.4,39.9,30.42,NNE,19,0.0,0.0,52,0.00,,---,0.00,VWS V14.01,2013-08-25 02:30:00,
2013-08-24 22:35:00,57.4,39.9,30.42,NNE,19,0.0,0.0,52,0.00,,---,0.00,VWS V14.01,2013-08-25 02:35:00,
2013-08-24 22:41:00,57.6,40.6,30.42,NNE,19,0.0,0.0,53,0.00,,---,0.00,VWS V14.01,2013-08-25 02:41:00,
2013-08-24 22:46:00,57.6,40.6,30.42,NNE,19,0.0,0.0,53,0.00,,---,0.00,VWS V14.01,2013-08-25 02:46:00,
2013-08-24 22:52:00,57.6,41.1,30.42,NNE,19,0.0,0.0,54,0.00,,---,0.00,VWS V14.01,2013-08-25 02:52:00,
2013-08-24 22:58:00,57.6,41.1,30.42,NNE,19,0.0,0.0,54,0.00,,---,0.00,VWS V14.01,2013-08-25 02:58:00,
2013-08-24 23:03:00,57.6,41.5,30.42,NNE,19,0.0,0.0,55,0.00,,---,0.00,VWS V14.01,2013-08-25 03:03:00,
2013-08-24 23:08:00,57.7,41.7,30.42,NNE,19,0.0,0.0,55,0.00,,---,0.00,VWS V14.01,2013-08-25 03:08:00,
2013-08-24 23:13:00,57.7,42.2,30.42,NNE,19,0.0,0.0,56,0.00,,---,0.00,VWS V14.01,2013-08-25 03:13:00,
2013-08-24 23:19:00,57.7,42.2,30.42,NNE,19,0.0,0.0,56,0.00,,---,0.00,VWS V14.01,2013-08-25 03:19:00,
2013-08-24 23:24:00,57.7,42.6,30.42,NNE,19,0.0,0.0,57,0.00,,---,0.00,VWS V14.01,2013-08-25 03:24:00,
2013-08-24 23:30:00,57.7,42.6,30.42,NNE,19,0.0,0.0,57,0.00,,---,0.00,VWS V14.01,2013-08-25 03:30:00,
2013-08-24 23:35:00,57.7,43.1,30.42,NNE,19,0.0,0.0,58,0.00,,---,0.00,VWS V14.01,2013-08-25 03:35:00,
2013-08-24 23:41:00,57.7,43.5,30.42,NNE,19,0.0,0.0,59,0.00,,---,0.00,VWS V14.01,2013-08-25 03:41:00,
2013-08-24 23:46:00,57.7,43.5,30.42,NNE,19,0.0,0.0,59,0.00,,---,0.00,VWS V14.01,2013-08-25 03:46:00,
2013-08-24 23:52:00,57.7,43.5,30.42,NNE,19,0.0,0.0,59,0.00,,---,0.00,VWS V14.01,2013-08-25 03:52:00,
2013-08-24 23:58:00,57.7,44.0,30.42,NNE,19,0.0,0.0,60,0.00,,---,0.00,VWS V14.01,2013-08-25 03:58:00,